Time,TemperatureF,DewpointF,PressureIn,WindDirection,WindDirectionDegrees,WindSpeedMPH,WindSpeedGustMPH,Humidity,HourlyPrecipIn,Conditions,Clouds,dailyrainin,SolarRadiationWatts/m^2,SoftwareType,DateUTC
2013-08-26 00:00:00,77.3,72.1,30.15,North,0,0.0,0.0,84,0.00,,---,0.00,0.00,VWS V14.00,2013-08-26 05:00:00,
2013-08-26 00:30:00,76.6,71.8,30.15,North,0,0.0,0.0,85,0.00,,---,0.00,0.00,VWS V14.00,2013-08-26 05:30:00,
2013-08-26 01:00:00,75.8,71.3,30.14,North,0,0.0,0.0,86,0.00,,---,0.00,0.00,VWS V14.00,2013-08-26 06:00:00,
2013-08-26 01:30:00,75.6,71.5,30.14,North,0,0.0,0.0,87,0.00,,---,0.00,0.00,VWS V14.00,2013-08-26 06:30:00,
2013-08-26 02:00:00,75.2,71.4,30.14,North,0,0.0,0.0,88,0.00,,---,0.00,0.00,VWS V14.00,2013-08-26 07:00:00,
2013-08-26 02:30:00,74.7,71.2,30.14,North,0,0.0,0.0,89,0.00,,---,0.00,0.00,VWS V14.00,2013-08-26 07:30:00,
2013-08-26 03:00:00,74.4,70.9,30.14,North,0,0.0,0.0,89,0.00,,---,0.00,0.00,VWS V14.00,2013-08-26 08:00:00,
2013-08-26 03:30:00,74.1,71.0,30.14,North,0,0.0,0.0,90,0.00,,---,0.00,0.00,VWS V14.00,2013-08-26 08:30:00,
2013-08-26 04:00:00,73.8,70.7,30.14,North,0,0.0,0.0,90,0.00,,---,0.00,0.00,VWS V14.00,2013-08-26 09:00:00,
2013-08-26 04:30:00,73.5,70.4,30.14,North,0,0.0,0.0,90,0.00,,---,0.00,0.00,VWS V14.00,2013-08-26 09:30:00,
2013-08-26 05:00:00,73.2,70.4,30.14,North,0,0.0,0.0,91,0.00,,---,0.00,0.00,VWS V14.00,2013-08-26 10:00:00,
2013-08-26 05:30:00,72.9,70.1,30.15,North,0,0.0,0.0,91,0.00,,---,0.00,0.00,VWS V14.00,2013-08-26 10:30:00,
2013-08-26 06:00:00,72.6,69.8,30.15,North,0,0.0,0.0,91,0.00,,---,0.00,0.00,VWS V14.00,2013-08-26 11:00:00,
2013-08-26 06:30:00,71.8,69.3,30.16,North,0,0.0,0.0,92,0.00,,---,0.00,0.00,VWS V14.00,2013-08-26 11:30:00,
2013-08-26 07:00:00,71.5,69.1,30.17,North,0,0.0,0.0,92,0.00,,---,0.00,4.00,VWS V14.00,2013-08-26 12:00:00,
2013-08-26 07:30:00,71.7,69.6,30.17,North,0,0.0,0.0,93,0.00,,---,0.00,16.00,VWS V14.00,2013-08-26 12:30:00,
2013-08-26 08:00:00,72.6,70.8,30.18,North,0,0.0,0.0,94,0.00,,---,0.00,29.00,VWS V14.00,2013-08-26 13:00:00,
2013-08-26 08:30:00,73.6,71.1,30.18,North,0,0.0,0.0,92,0.00,,---,0.00,39.00,VWS V14.00,2013-08-26 13:30:00,
2013-08-26 09:00:00,75.1,71.0,30.18,North,0,0.0,0.0,87,0.00,,---,0.00,48.00,VWS V14.00,2013-08-26 14:00:00,
2013-08-26 09:30:00,76.8,71.2,30.19,North,0,0.0,0.0,83,0.00,,---,0.00,62.00,VWS V14.00,2013-08-26 14:30:00,
2013-08-26 10:00:00,78.7,71.6,30.19,North,0,0.0,0.0,79,0.00,,---,0.00,128.00,VWS V14.00,2013-08-26 15:00:00,
2013-08-26 10:30:00,80.8,71.7,30.19,North,0,0.0,0.0,74,0.00,,---,0.00,214.00,VWS V14.00,2013-08-26 15:30:00,
2013-08-26 11:00:00,82.3,71.5,30.19,North,0,0.0,0.0,70,0.00,,---,0.00,143.00,VWS V14.00,2013-08-26 16:00:00,
2013-08-26 11:30:00,83.4,72.2,30.18,North,0,0.0,0.0,69,0.00,,---,0.00,127.00,VWS V14.00,2013-08-26 16:30:00,
2013-08-26 12:00:00,84.1,71.5,30.17,North,0,0.0,0.0,66,0.00,,---,0.00,120.00,VWS V14.00,2013-08-26 17:00:00,
2013-08-26 12:30:00,85.2,71.7,30.17,North,0,0.0,0.0,64,0.00,,---,0.00,164.00,VWS V14.00,2013-08-26 17:30:00,
2013-08-26 13:00:00,87.2,72.6,30.15,North,0,0.0,0.0,62,0.00,,---,0.00,621.00,VWS V14.00,2013-08-26 18:00:00,
2013-08-26 13:30:00,88.4,72.8,30.15,North,0,0.0,0.0,60,0.00,,---,0.00,474.00,VWS V14.00,2013-08-26 18:30:00,
2013-08-26 14:00:00,88.3,71.7,30.13,North,0,0.0,0.0,58,0.00,,---,0.00,201.00,VWS V14.00,2013-08-26 19:00:00,
2013-08-26 14:30:00,87.8,72.2,30.12,North,0,0.0,0.0,60,0.00,,---,0.00,142.00,VWS V14.00,2013-08-26 19:30:00,
2013-08-26 15:00:00,87.9,72.3,30.11,North,0,0.0,0.0,60,0.00,,---,0.00,162.00,VWS V14.00,2013-08-26 20:00:00,
2013-08-26 15:30:00,88.1,72.0,30.10,NNW,338,0.0,1.0,59,0.00,,---,0.00,137.00,VWS V14.00,2013-08-26 20:30:00,
2013-08-26 16:00:00,87.3,72.2,30.09,NNW,338,0.0,0.0,61,0.00,,---,0.00,81.00,VWS V14.00,2013-08-26 21:00:00,
2013-08-26 16:30:00,87.2,72.6,30.08,NNW,338,0.0,0.0,62,0.00,,---,0.00,103.00,VWS V14.00,2013-08-26 21:30:00,
2013-08-26 17:00:00,87.4,71.3,30.07,NNW,338,0.0,0.0,59,0.00,,---,0.00,89.00,VWS V14.00,2013-08-26 22:00:00,
2013-08-26 17:30:00,87.2,72.6,30.07,NNW,338,0.0,0.0,62,0.00,,---,0.00,50.00,VWS V14.00,2013-08-26 22:30:00,
2013-08-26 18:00:00,86.6,73.0,30.06,NNW,338,0.0,0.0,64,0.00,,---,0.00,49.00,VWS V14.00,2013-08-26 23:00:00,
2013-08-26 18:30:00,86.6,73.4,30.06,NNW,338,0.0,0.0,65,0.00,,---,0.00,42.00,VWS V14.00,2013-08-26 23:30:00,
2013-08-26 18:51:00,86.6,73.4,30.06,NNW,338,0.0,0.0,65,0.00,,---,0.00,42.00,VWS V14.00,2013-08-26 23:51:00,
2013-08-26 18:52:00,85.9,72.3,30.06,NNE,17,0.0,0.0,64,0.00,,---,0.00,28.00,VWS V14.00,2013-08-26 23:52:00,
2013-08-26 18:56:00,85.8,72.2,30.06,NNE,17,0.0,0.0,64,0.00,,---,0.00,25.00,VWS V14.00,2013-08-26 23:56:00,
2013-08-26 19:00:00,85.8,72.2,30.06,NNE,17,0.0,0.0,64,0.00,,---,0.00,25.00,VWS V14.00,2013-08-27 00:00:00,
2013-08-26 19:01:00,85.6,72.5,30.05,NNE,17,0.0,0.0,65,0.00,,---,0.00,21.00,VWS V14.00,2013-08-27 00:01:00,
2013-08-26 19:06:00,85.5,72.4,30.05,NNE,17,0.0,0.0,65,0.00,,---,0.00,18.00,VWS V14.00,2013-08-27 00:06:00,
2013-08-26 19:11:00,85.3,72.7,30.05,NNE,17,0.0,0.0,66,0.00,,---,0.00,12.00,VWS V14.00,2013-08-27 00:11:00,
2013-08-26 19:16:00,85.0,71.9,30.05,NNE,17,0.0,0.0,65,0.00,,---,0.00,14.00,VWS V14.00,2013-08-27 00:16:00,
2013-08-26 19:21:00,84.8,71.7,30.05,NNE,17,0.0,0.0,65,0.00,,---,0.00,11.00,VWS V14.00,2013-08-27 00:21:00,
2013-08-26 19:26:00,84.5,71.4,30.05,NNE,17,0.0,0.0,65,0.00,,---,0.00,5.00,VWS V14.00,2013-08-27 00:26:00,
2013-08-26 19:30:00,84.6,71.6,30.05,NNE,17,0.0,0.0,65,0.00,,---,0.00,5.00,VWS V14.00,2013-08-27 00:30:00,
2013-08-26 19:31:00,84.3,71.7,30.06,NNE,17,0.0,0.0,66,0.00,,---,0.00,0.00,VWS V14.00,2013-08-27 00:31:00,
2013-08-26 19:36:00,84.1,71.5,30.06,NNE,17,0.0,0.0,66,0.00,,---,0.00,0.00,VWS V14.00,2013-08-27 00:36:00,
2013-08-26 19:41:00,83.9,71.8,30.06,NNE,17,0.0,0.0,67,0.00,,---,0.00,0.00,VWS V14.00,2013-08-27 00:41:00,
2013-08-26 19:46:00,83.7,71.6,30.06,NNE,17,0.0,0.0,67,0.00,,---,0.00,0.00,VWS V14.00,2013-08-27 00:46:00,
2013-08-26 19:51:00,83.4,71.7,30.06,NNE,17,0.0,0.0,68,0.00,,---,0.00,0.00,VWS V14.00,2013-08-27 00:51:00,
2013-08-26 19:56:00,83.2,71.6,30.06,NNE,17,0.0,0.0,68,0.00,,---,0.00,0.00,VWS V14.00,2013-08-27 00:56:00,
2013-08-26 20:00:00,83.3,71.6,30.06,NNE,17,0.0,0.0,68,0.00,,---,0.00,0.00,VWS V14.00,2013-08-27 01:00:00,
2013-08-26 20:01:00,83.0,71.8,30.06,NNE,17,0.0,0.0,69,0.00,,---,0.00,0.00,VWS V14.00,2013-08-27 01:01:00,
2013-08-26 20:06:00,82.9,71.7,30.06,NNE,17,0.0,0.0,69,0.00,,---,0.00,0.00,VWS V14.00,2013-08-27 01:06:00,
2013-08-26 20:11:00,82.6,71.4,30.06,NNE,17,0.0,0.0,69,0.00,,---,0.00,0.00,VWS V14.00,2013-08-27 01:11:00,
2013-08-26 20:16:00,82.5,71.3,30.06,NNE,17,0.0,0.0,69,0.00,,---,0.00,0.00,VWS V14.00,2013-08-27 01:16:00,
2013-08-26 20:30:00,82.1,71.3,30.06,North,0,0.0,0.0,70,0.00,,---,0.00,0.00,VWS V14.00,2013-08-27 01:30:00,
2013-08-26 21:00:00,80.8,70.5,30.07,North,0,0.0,0.0,71,0.00,,---,0.00,0.00,VWS V14.00,2013-08-27 02:00:00,
2013-08-26 21:30:00,79.6,70.2,30.07,North,0,0.0,0.0,73,0.00,,---,0.00,0.00,VWS V14.00,2013-08-27 02:30:00,
2013-08-26 22:00:00,78.5,69.5,30.07,North,0,0.0,0.0,74,0.00,,---,0.00,0.00,VWS V14.00,2013-08-27 03:00:00,
2013-08-26 22:30:00,77.6,69.4,30.07,North,0,0.0,0.0,76,0.00,,---,0.00,0.00,VWS V14.00,2013-08-27 03:30:00,
2013-08-26 23:00:00,76.8,69.1,30.07,North,0,0.0,0.0,77,0.00,,---,0.00,0.00,VWS V14.00,2013-08-27 04:00:00,
2013-08-26 23:30:00,76.5,68.8,30.07,North,0,0.0,0.0,77,0.00,,---,0.00,0.00,VWS V14.00,2013-08-27 04:30:00,